sat.trackr.live / text

‹ back to catalog

STARLINK-5997

NORAD 56327 · 2023-058L

PAYLOAD ACTIVE UNKNOWN

§ Identity

Operator
Country
US
Launch date
2023-04-27
Launch site
AFWTR
Launch vehicle
Mass (kg)
RCS (m²)

Purposes: comms

External: N2YO · Heavens-Above · Gunter

§ Orbital elements

Epoch: 2026-05-25T02:52:58.506240Z

Period
95.64 min
Inclination
97.4450°
Eccentricity
0.0002158
Mean motion
15.05679619 rev/d
Perigee alt
547.9 km
Apogee alt
550.9 km
Semi-major
6,927.6 km
B*
-3.8601e-4
RAAN
145.0634°
Arg perigee
77.8117°
Mean anomaly
282.3352°
Rev number
16,962

§ Raw data

STARLINK-59971 56327U 23058L   26145.12012160 -.00005628  00000+0 -38601-3 0  99952 56327  97.4450 145.0634 0002158  77.8117 282.3352 15.05679619169622

JSON: /api/v1/satellites/56327 · /tle

For live sub-satellite position, see the globe view (requires WebGL).

§ Visibility from observer

Set your observer location to see the next 7 days of passes ≥ 10°. The values pass through the URL so the page stays shareable.

No JS? Fill the form by hand. The geolocation button needs JavaScript.